Overview Statistics Trail Chart Weather Telemetry Raw packets
 

This is the latest recevied weather packets stored in our database for station/object WW5JC. If no packets are shown the sender has not sent any weather packets the latest 10 day(s).

<< 100 101 102 103 104 105 106 >>
Time Temp. Humidity Pressure Rain* Wind** Luminosity Snow
1787876155 33.33° C 42% 1015.3 hPa 0 mm - 27 W/m² -
1787875851 33.33° C 41% 1015 hPa 0 mm - 32 W/m² -
1787875550 33.89° C 41% 1015.3 hPa 0 mm - 40 W/m² -
1787875244 33.89° C 40% 1015.2 hPa 0 mm - 50 W/m² -
1787874944 33.89° C 40% 1015.3 hPa 0 mm - 55 W/m² -
1787874644 34.44° C 40% 1015.1 hPa 0 mm - 63 W/m² -
1787874343 34.44° C 39% 1015.4 hPa 0 mm - 71 W/m² -
1787874038 34.44° C 38% 1015.4 hPa 0 mm - 74 W/m² -
1787873737 34.44° C 38% 1015.3 hPa 0 mm - 72 W/m² -
1787873432 35° C 36% 1015.4 hPa 0 mm - 98 W/m² -
1787873128 35° C 37% 1015.5 hPa 0 mm - 107 W/m² -
1787872826 35° C 38% 1015.5 hPa 0 mm - 118 W/m² -
1787872522 35° C 40% 1015.3 hPa 0 mm - 131 W/m² -
1787872217 35° C 41% 1015.4 hPa 0 mm - 143 W/m² -
1787871917 35.56° C 40% 1015.6 hPa 0 mm - 153 W/m² -
1787871612 35.56° C 39% 1015.5 hPa 0 mm - 164 W/m² -
1787871308 35.56° C 41% 1015.6 hPa 0 mm - 175 W/m² -
1787871008 35.56° C 41% 1015.6 hPa 0 mm - 189 W/m² -
1787870707 35.56° C 41% 1015.8 hPa 0 mm - 202 W/m² -
1787870402 35.56° C 41% 1015.7 hPa 0 mm - 214 W/m² -
1787870098 35.56° C 43% 1015.9 hPa 0 mm - 229 W/m² -
1787869795 35.56° C 43% 1015.6 hPa 0 mm - 245 W/m² -
1787869486 35.56° C 42% 1015.7 hPa 0 mm - 256 W/m² -
1787869184 36.11° C 42% 1015.8 hPa 0 mm - 280 W/m² -
1787868879 36.11° C 42% 1016 hPa 0 mm - 301 W/m² -

* Rain latest hour (hover to see other rain measurements)
** Current wind speed in m/s (hover to see current wind gust speed)